• In Deutschland
  • Länderverzeichnis
  • Für 7 Tage
  • Wassertemperatur
  • Satellitenkarten
  • Wetterkarte
  • Widgets
  • user-avatar
    Anmelden

    Stündliche Wetter Żyrardów

    Heute, 11 Dezember, Montag

    Zeit Temperatur Niederschläge Wind Luftdruck Luftfeuchtigkeit
    00:00 -1°C° 0,1 mm 6 m/S 735 mmHg 65%
    01:00 -2°C° 0 mm 6 m/S 734 mmHg 70%
    02:00 -1°C° 0 mm 6 m/S 734 mmHg 71%
    03:00 -1°C° 0 mm 7 m/S 734 mmHg 72%
    04:00 -1°C° 0 mm 7 m/S 734 mmHg 73%
    05:00 0°C° 0,4 mm 7 m/S 734 mmHg 74%
    06:00 0°C° 0,4 mm 7 m/S 734 mmHg 74%
    07:00 +2°C° 0,4 mm 7 m/S 734 mmHg 75%
    08:00 +2°C° 0,3 mm 7 m/S 735 mmHg 75%
    09:00 +2°C° 0,3 mm 6 m/S 735 mmHg 76%
    10:00 +3°C° 0,3 mm 6 m/S 736 mmHg 76%
    11:00 +3°C° 0 mm 5 m/S 736 mmHg 76%
    12:00 +5°C° 0 mm 5 m/S 736 mmHg 76%
    13:00 +5°C° 0 mm 4 m/S 736 mmHg 76%
    14:00 +4°C° 0 mm 4 m/S 735 mmHg 78%
    15:00 +4°C° 0 mm 4 m/S 735 mmHg 81%
    16:00 +3°C° 0 mm 4 m/S 735 mmHg 83%
    17:00 +4°C° 0 mm 4 m/S 735 mmHg 83%
    18:00 +5°C° 0 mm 5 m/S 734 mmHg 82%
    19:00 +4°C° 0 mm 6 m/S 734 mmHg 82%
    20:00 +5°C° 0 mm 6 m/S 734 mmHg 82%
    21:00 +5°C° 0 mm 6 m/S 734 mmHg 83%
    22:00 +7°C° 0 mm 6 m/S 734 mmHg 83%
    23:00 +7°C° 0 mm 6 m/S 734 mmHg 82%

    Morgen, 12 Dezember, Dienstag

    Zeit Temperatur Niederschläge Wind Luftdruck Luftfeuchtigkeit
    00:00 +8°C° 0 mm 6 m/S 734 mmHg 81%
    01:00 +8°C° 0 mm 7 m/S 734 mmHg 80%
    02:00 +8°C° 0 mm 7 m/S 735 mmHg 79%
    03:00 +9°C° 0 mm 7 m/S 735 mmHg 79%
    04:00 +9°C° 0 mm 7 m/S 735 mmHg 78%
    05:00 +9°C° 0 mm 6 m/S 736 mmHg 79%
    06:00 +9°C° 0 mm 6 m/S 737 mmHg 80%
    07:00 +9°C° 0 mm 6 m/S 737 mmHg 81%
    08:00 +8°C° 0 mm 6 m/S 738 mmHg 80%
    09:00 +8°C° 0 mm 5 m/S 738 mmHg 80%
    10:00 +8°C° 0 mm 5 m/S 739 mmHg 80%
    11:00 +8°C° 0 mm 5 m/S 739 mmHg 74%
    12:00 +8°C° 0 mm 6 m/S 740 mmHg 68%
    13:00 +9°C° 0 mm 6 m/S 740 mmHg 61%
    14:00 +8°C° 0 mm 6 m/S 741 mmHg 62%
    15:00 +7°C° 0 mm 6 m/S 742 mmHg 62%
    16:00 +5°C° 0 mm 6 m/S 743 mmHg 63%
    17:00 +5°C° 0 mm 6 m/S 744 mmHg 63%
    18:00 +4°C° 0 mm 7 m/S 745 mmHg 64%
    19:00 +4°C° 0 mm 7 m/S 745 mmHg 64%
    20:00 +3°C° 0 mm 7 m/S 746 mmHg 64%
    21:00 +3°C° 0 mm 7 m/S 747 mmHg 63%
    22:00 +3°C° 0 mm 7 m/S 748 mmHg 63%
    23:00 +2°C° 0 mm 7 m/S 748 mmHg 64%

    übermorgen, 13 Dezember, Mittwoch

    Zeit Temperatur Niederschläge Wind Luftdruck Luftfeuchtigkeit
    00:00 +2°C° 0 mm 7 m/S 749 mmHg 65%
    01:00 0°C° 0 mm 7 m/S 749 mmHg 66%
    02:00 +1°C° 0 mm 6 m/S 749 mmHg 69%
    03:00 +1°C° 0 mm 6 m/S 750 mmHg 71%
    04:00 -1°C° 0 mm 6 m/S 750 mmHg 74%
    05:00 0°C° 0 mm 5 m/S 751 mmHg 77%
    06:00 -1°C° 0 mm 5 m/S 751 mmHg 80%
    07:00 -2°C° 0 mm 4 m/S 752 mmHg 84%
    08:00 -1°C° 0 mm 4 m/S 752 mmHg 83%
    09:00 -1°C° 0 mm 4 m/S 753 mmHg 82%
    10:00 0°C° 0 mm 4 m/S 753 mmHg 81%
    11:00 0°C° 0 mm 4 m/S 753 mmHg 78%
    12:00 +1°C° 0 mm 4 m/S 753 mmHg 75%
    13:00 +1°C° 0 mm 4 m/S 752 mmHg 73%
    14:00 0°C° 0 mm 4 m/S 752 mmHg 75%
    15:00 0°C° 0 mm 4 m/S 752 mmHg 77%
    16:00 0°C° 0 mm 3 m/S 751 mmHg 80%
    17:00 -1°C° 0 mm 4 m/S 751 mmHg 79%
    18:00 -1°C° 0 mm 4 m/S 750 mmHg 78%
    19:00 -1°C° 0 mm 5 m/S 750 mmHg 78%
    20:00 -1°C° 0 mm 5 m/S 749 mmHg 77%
    21:00 -1°C° 0 mm 5 m/S 749 mmHg 76%
    22:00 -2°C° 0 mm 6 m/S 748 mmHg 75%
    23:00 -2°C° 0 mm 6 m/S 748 mmHg 73%

    14 Dezember, Donnerstag

    Zeit Temperatur Niederschläge Wind Luftdruck Luftfeuchtigkeit
    00:00 -2°C° 0 mm 6 m/S 747 mmHg 71%
    01:00 -2°C° 0 mm 6 m/S 746 mmHg 69%
    02:00 -2°C° 0 mm 6 m/S 745 mmHg 68%
    03:00 -2°C° 0 mm 6 m/S 745 mmHg 66%
    04:00 -1°C° 0 mm 6 m/S 744 mmHg 64%
    05:00 -1°C° 0,1 mm 6 m/S 743 mmHg 65%
    06:00 -1°C° 0,1 mm 6 m/S 743 mmHg 66%
    07:00 -1°C° 0,1 mm 6 m/S 742 mmHg 67%
    08:00 0°C° 0 mm 7 m/S 742 mmHg 65%
    09:00 0°C° 0 mm 7 m/S 742 mmHg 64%
    10:00 +2°C° 0 mm 7 m/S 741 mmHg 63%
    11:00 +2°C° 0 mm 7 m/S 741 mmHg 64%
    12:00 +2°C° 0 mm 6 m/S 741 mmHg 65%
    13:00 +3°C° 0 mm 6 m/S 740 mmHg 67%
    14:00 +2°C° 0,1 mm 6 m/S 740 mmHg 70%
    15:00 +2°C° 0,1 mm 6 m/S 740 mmHg 72%
    16:00 +2°C° 0,1 mm 5 m/S 739 mmHg 75%
    17:00 +2°C° 0,1 mm 5 m/S 739 mmHg 76%
    18:00 +1°C° 0,1 mm 5 m/S 739 mmHg 77%
    19:00 +1°C° 0,1 mm 5 m/S 738 mmHg 78%
    20:00 +1°C° 0 mm 5 m/S 737 mmHg 79%
    21:00 +1°C° 0 mm 5 m/S 737 mmHg 80%
    22:00 +1°C° 0 mm 6 m/S 736 mmHg 81%
    23:00 +2°C° 0,3 mm 7 m/S 735 mmHg 79%

    15 Dezember, Freitag

    Zeit Temperatur Niederschläge Wind Luftdruck Luftfeuchtigkeit
    00:00 +3°C° 0,3 mm 7 m/S 735 mmHg 77%
    01:00 +2°C° 0,3 mm 8 m/S 734 mmHg 75%
    02:00 +2°C° 0,1 mm 8 m/S 735 mmHg 73%
    03:00 +2°C° 0,1 mm 7 m/S 736 mmHg 71%
    04:00 +2°C° 0,1 mm 7 m/S 736 mmHg 70%
    05:00 +1°C° 0 mm 6 m/S 737 mmHg 73%
    06:00 +1°C° 0 mm 5 m/S 738 mmHg 76%
    07:00 0°C° 0 mm 5 m/S 739 mmHg 80%
    08:00 0°C° 0 mm 5 m/S 740 mmHg 79%
    09:00 +1°C° 0 mm 5 m/S 740 mmHg 78%
    10:00 +1°C° 0 mm 5 m/S 741 mmHg 77%
    11:00 +1°C° 0 mm 5 m/S 741 mmHg 74%
    12:00 +2°C° 0 mm 5 m/S 741 mmHg 70%
    13:00 +2°C° 0 mm 5 m/S 741 mmHg 67%
    14:00 +1°C° 0 mm 4 m/S 741 mmHg 70%
    15:00 +2°C° 0 mm 3 m/S 741 mmHg 74%
    16:00 +2°C° 0 mm 2 m/S 740 mmHg 77%
    17:00 +2°C° 0 mm 2 m/S 740 mmHg 79%
    18:00 +2°C° 0 mm 2 m/S 740 mmHg 80%
    19:00 +1°C° 0 mm 2 m/S 740 mmHg 82%
    20:00 +1°C° 0 mm 2 m/S 740 mmHg 83%
    21:00 +2°C° 0 mm 1 m/S 740 mmHg 83%
    22:00 +2°C° 0 mm 1 m/S 740 mmHg 84%
    23:00 +2°C° 0 mm 1 m/S 740 mmHg 85%

    16 Dezember, Samstag

    Zeit Temperatur Niederschläge Wind Luftdruck Luftfeuchtigkeit
    00:00 +2°C° 0 mm 1 m/S 739 mmHg 85%
    01:00 +2°C° 0 mm 1 m/S 739 mmHg 86%
    02:00 +2°C° 0 mm 1 m/S 739 mmHg 85%
    03:00 +2°C° 0 mm 1 m/S 739 mmHg 85%
    04:00 +1°C° 0 mm 2 m/S 739 mmHg 84%
    05:00 +1°C° 0 mm 2 m/S 740 mmHg 84%
    06:00 +1°C° 0 mm 2 m/S 740 mmHg 83%
    07:00 +1°C° 0 mm 2 m/S 741 mmHg 83%
    08:00 +1°C° 0 mm 2 m/S 741 mmHg 81%
    09:00 0°C° 0 mm 3 m/S 742 mmHg 79%
    10:00 +1°C° 0 mm 3 m/S 742 mmHg 78%
    11:00 +1°C° 0 mm 3 m/S 742 mmHg 77%
    12:00 +1°C° 0 mm 3 m/S 743 mmHg 77%
    13:00 +2°C° 0 mm 3 m/S 743 mmHg 77%
    14:00 +1°C° 0 mm 3 m/S 743 mmHg 80%
    15:00 +1°C° 0 mm 3 m/S 743 mmHg 83%
    16:00 +1°C° 0 mm 2 m/S 744 mmHg 86%
    17:00 +1°C° 0 mm 2 m/S 744 mmHg 87%
    18:00 0°C° 0 mm 3 m/S 745 mmHg 88%
    19:00 0°C° 0 mm 3 m/S 745 mmHg 89%
    20:00 0°C° 0 mm 3 m/S 746 mmHg 89%
    21:00 -1°C° 0 mm 3 m/S 746 mmHg 90%
    22:00 -1°C° 0 mm 3 m/S 746 mmHg 91%
    23:00 -1°C° 0 mm 3 m/S 747 mmHg 90%
    Mehr zeigen